| time (UTC) | temp C | wind direction | speed KPH | gust KPH | rain 1hr cm | rain 24hr cm | rain mn cm | humidity % | barometer mb |
| 20260508060512 | 16 | 41 | 1.6 | 3.2 | 0.00 | 0.00 | 0.00 | 76 | 1011.3 |
| 20260508060021 | 16 | 39 | 0.0 | 3.2 | 0.00 | 0.00 | 0.00 | 79 | 1011.3 |
| 20260508055507 | 16 | 64 | 0.0 | 1.6 | 0.00 | 0.00 | 0.00 | 79 | 1011.2 |
| 20260508055010 | 16 | 65 | 0.0 | 1.6 | 0.00 | 0.00 | 0.00 | 80 | 1011.2 |
| 20260508054523 | 15 | 65 | 0.0 | 1.6 | 0.00 | 0.00 | 0.00 | 82 | 1011.2 |
| 20260508054011 | 15 | 65 | 0.0 | 1.6 | 0.00 | 0.00 | 0.00 | 83 | 1011.1 |
| 20260508053509 | 15 | 64 | 0.0 | 1.6 | 0.00 | 0.00 | 0.00 | 83 | 1011.0 |
| 20260508053026 | 15 | 64 | 0.0 | 1.6 | 0.00 | 0.00 | 0.00 | 82 | 1011.0 |
| 20260508052515 | 15 | 64 | 0.0 | 1.6 | 0.00 | 0.00 | 0.00 | 83 | 1010.9 |
| 20260508052012 | 15 | 64 | 0.0 | 0.0 | 0.00 | 0.00 | 0.00 | 83 | 1010.9 |
| 20260508051512 | 14 | 64 | 0.0 | 1.6 | 0.00 | 0.00 | 0.00 | 83 | 1010.9 |
| 20260508051007 | 14 | 64 | 0.0 | 1.6 | 0.00 | 0.00 | 0.00 | 83 | 1010.9 |
| 20260508050507 | 14 | 63 | 1.6 | 1.6 | 0.00 | 0.00 | 0.00 | 83 | 1010.8 |
| 20260508050020 | 14 | 58 | 0.0 | 0.0 | 0.00 | 0.00 | 0.00 | 83 | 1010.7 |
| 20260508045507 | 14 | 58 | 0.0 | 1.6 | 0.00 | 0.00 | 0.00 | 83 | 1010.6 |
| 20260508045010 | 14 | 58 | 0.0 | 1.6 | 0.00 | 0.00 | 0.00 | 83 | 1010.6 |
| 20260508044520 | 14 | 58 | 0.0 | 1.6 | 0.00 | 0.00 | 0.00 | 82 | 1010.4 |
| 20260508044007 | 14 | 58 | 0.0 | 1.6 | 0.00 | 0.00 | 0.00 | 82 | 1010.4 |
| 20260508043510 | 14 | 58 | 0.0 | 1.6 | 0.00 | 0.00 | 0.00 | 82 | 1010.3 |
| 20260508043047 | 14 | 58 | 0.0 | 1.6 | 0.00 | 0.00 | 0.00 | 81 | 1010.3 |
| 20260508042511 | 14 | 58 | 0.0 | 1.6 | 0.00 | 0.00 | 0.00 | 81 | 1010.2 |
| 20260508042012 | 13 | 58 | 0.0 | 1.6 | 0.00 | 0.00 | 0.00 | 81 | 1010.1 |
| 20260508041528 | 14 | 58 | 0.0 | 3.2 | 0.00 | 0.00 | 0.00 | 81 | 1010.0 |
| 20260508041011 | 14 | 56 | 1.6 | 3.2 | 0.00 | 0.00 | 0.00 | 81 | 1009.9 |
| 20260508040510 | 13 | 39 | 1.6 | 3.2 | 0.00 | 0.00 | 0.00 | 81 | 1009.9 |
| 20260508040020 | 14 | 62 | 1.6 | 6.4 | 0.00 | 0.00 | 0.00 | 81 | 1009.9 |
| 20260508035506 | 13 | 64 | 1.6 | 6.4 | 0.00 | 0.00 | 0.00 | 81 | 1009.8 |
| 20260508035006 | 13 | 40 | 1.6 | 4.8 | 0.00 | 0.00 | 0.00 | 81 | 1009.8 |
| 20260508034519 | 13 | 37 | 1.6 | 4.8 | 0.00 | 0.00 | 0.00 | 81 | 1009.8 |
| 20260508034010 | 13 | 79 | 1.6 | 3.2 | 0.00 | 0.00 | 0.00 | 81 | 1009.7 |
| 20260508033510 | 14 | 72 | 1.6 | 4.8 | 0.00 | 0.00 | 0.00 | 80 | 1009.8 |
| 20260508033022 | 14 | 73 | 1.6 | 4.8 | 0.00 | 0.00 | 0.00 | 80 | 1009.8 |
| 20260508032509 | 14 | 56 | 1.6 | 3.2 | 0.00 | 0.00 | 0.00 | 80 | 1009.8 |
| 20260508032011 | 14 | 32 | 1.6 | 4.8 | 0.00 | 0.00 | 0.00 | 81 | 1009.9 |
| 20260508031525 | 13 | 66 | 0.0 | 4.8 | 0.00 | 0.00 | 0.00 | 81 | 1009.9 |
| 20260508031004 | 13 | 57 | 1.6 | 4.8 | 0.00 | 0.00 | 0.00 | 82 | 1009.9 |
| 20260508030504 | 13 | 32 | 1.6 | 4.8 | 0.00 | 0.00 | 0.00 | 82 | 1009.9 |
| 20260508030008 | 13 | 6 | 1.6 | 3.2 | 0.00 | 0.00 | 0.00 | 82 | 1009.9 |
| 20260508025508 | 13 | 349 | 1.6 | 3.2 | 0.00 | 0.00 | 0.00 | 82 | 1010.0 |
| 20260508025004 | 13 | 13 | 0.0 | 1.6 | 0.00 | 0.00 | 0.00 | 82 | 1010.1 |
| 20260508024516 | 13 | 13 | 0.0 | 1.6 | 0.00 | 0.00 | 0.00 | 82 | 1010.1 |
| 20260508024006 | 13 | 72 | 0.0 | 1.6 | 0.00 | 0.00 | 0.00 | 82 | 1010.2 |
| 20260508023508 | 14 | 72 | 0.0 | 1.6 | 0.00 | 0.00 | 0.00 | 82 | 1010.3 |
| 20260508023020 | 14 | 72 | 0.0 | 1.6 | 0.00 | 0.00 | 0.00 | 81 | 1010.3 |
| 20260508022509 | 14 | 72 | 0.0 | 1.6 | 0.00 | 0.00 | 0.00 | 81 | 1010.4 |
| 20260508022013 | 14 | 72 | 0.0 | 1.6 | 0.00 | 0.00 | 0.00 | 81 | 1010.4 |
| 20260508021524 | 14 | 47 | 0.0 | 1.6 | 0.00 | 0.00 | 0.00 | 81 | 1010.3 |
| 20260508021009 | 14 | 34 | 0.0 | 1.6 | 0.00 | 0.00 | 0.00 | 82 | 1010.3 |
| 20260508020509 | 14 | 34 | 0.0 | 1.6 | 0.00 | 0.00 | 0.00 | 82 | 1010.3 |
| 20260508020007 | 14 | 8 | 0.0 | 1.6 | 0.00 | 0.00 | 0.00 | 82 | 1010.3 |
| 20260508015504 | 14 | 43 | 0.0 | 3.2 | 0.00 | 0.00 | 0.00 | 83 | 1010.2 |
| 20260508015005 | 13 | 43 | 1.6 | 4.8 | 0.00 | 0.00 | 0.00 | 83 | 1010.3 |
| 20260508014514 | 13 | 6 | 1.6 | 4.8 | 0.00 | 0.00 | 0.00 | 84 | 1010.2 |
| 20260508014006 | 13 | 14 | 0.0 | 3.2 | 0.00 | 0.00 | 0.00 | 84 | 1010.4 |
| 20260508013505 | 13 | 340 | 1.6 | 3.2 | 0.00 | 0.00 | 0.00 | 84 | 1010.4 |
| 20260508013015 | 13 | 52 | 1.6 | 4.8 | 0.00 | 0.00 | 0.00 | 84 | 1010.4 |
| 20260508012509 | 14 | 54 | 1.6 | 4.8 | 0.00 | 0.00 | 0.00 | 83 | 1010.6 |
| 20260508012009 | 14 | 98 | 0.0 | 1.6 | 0.00 | 0.00 | 0.00 | 82 | 1010.6 |
| 20260508011523 | 14 | 101 | 0.0 | 1.6 | 0.00 | 0.00 | 0.00 | 81 | 1010.8 |
| 20260508011010 | 14 | 20 | 0.0 | 1.6 | 0.00 | 0.00 | 0.00 | 81 | 1010.8 |
| 20260508010509 | 14 | 20 | 0.0 | 3.2 | 0.00 | 0.00 | 0.00 | 81 | 1010.7 |
| 20260508010026 | 15 | 25 | 0.0 | 4.8 | 0.00 | 0.00 | 0.00 | 81 | 1010.8 |
| 20260508005510 | 15 | 35 | 1.6 | 6.4 | 0.00 | 0.00 | 0.00 | 81 | 1010.9 |
| 20260508005012 | 14 | 47 | 3.2 | 6.4 | 0.00 | 0.00 | 0.00 | 82 | 1010.9 |
| 20260508004509 | 14 | 46 | 1.6 | 6.4 | 0.00 | 0.00 | 0.00 | 82 | 1010.8 |
| 20260508004009 | 15 | 39 | 3.2 | 8.0 | 0.00 | 0.00 | 0.00 | 82 | 1010.8 |
| 20260508003504 | 15 | 15 | 3.2 | 8.0 | 0.00 | 0.00 | 0.00 | 82 | 1010.8 |
| 20260508003014 | 14 | 49 | 3.2 | 6.4 | 0.00 | 0.00 | 0.00 | 82 | 1010.9 |
| 20260508002507 | 15 | 34 | 1.6 | 8.0 | 0.00 | 0.00 | 0.00 | 82 | 1010.9 |
| 20260508002009 | 15 | 26 | 3.2 | 8.0 | 0.00 | 0.00 | 0.00 | 82 | 1011.1 |
| 20260508001519 | 14 | 20 | 4.8 | 8.0 | 0.00 | 0.00 | 0.00 | 83 | 1011.1 |
| 20260508001006 | 14 | 338 | 3.2 | 8.0 | 0.00 | 0.00 | 0.00 | 83 | 1011.2 |
| 20260508000514 | 14 | 26 | 3.2 | 9.7 | 0.00 | 0.00 | 0.00 | 84 | 1011.3 |
| 20260508000022 | 14 | 56 | 4.8 | 9.7 | 0.00 | 0.00 | 0.00 | 84 | 1011.3 |
| 20260507235509 | 14 | 47 | 4.8 | 9.7 | 0.00 | 0.00 | 0.00 | 84 | 1011.5 |
| 20260507235008 | 14 | 56 | 4.8 | 8.0 | 0.00 | 0.00 | 0.00 | 85 | 1011.6 |
| 20260507234535 | 14 | 52 | 3.2 | 8.0 | 0.00 | 0.00 | 0.00 | 85 | 1011.7 |
| 20260507234009 | 14 | 44 | 3.2 | 8.0 | 0.00 | 0.00 | 0.00 | 85 | 1011.7 |
| 20260507233509 | 13 | 43 | 3.2 | 8.0 | 0.00 | 0.00 | 0.00 | 86 | 1011.8 |
| 20260507233008 | 13 | 51 | 3.2 | 4.8 | 0.00 | 0.03 | 0.00 | 87 | 1011.8 |
| 20260507232508 | 13 | 72 | 1.6 | 4.8 | 0.00 | 0.08 | 0.00 | 88 | 1011.9 |
| 20260507232006 | 13 | 41 | 3.2 | 4.8 | 0.00 | 0.08 | 0.00 | 88 | 1012.1 |
| 20260507231518 | 13 | 30 | 0.0 | 3.2 | 0.00 | 0.10 | 0.00 | 89 | 1012.2 |
| 20260507231008 | 13 | 60 | 0.0 | 3.2 | 0.00 | 0.10 | 0.00 | 89 | 1012.3 |
| 20260507230507 | 13 | 60 | 0.0 | 3.2 | 0.00 | 0.10 | 0.00 | 89 | 1012.4 |
| 20260507230022 | 13 | 61 | 1.6 | 3.2 | 0.00 | 0.10 | 0.00 | 89 | 1012.5 |
| 20260507225512 | 13 | 67 | 1.6 | 3.2 | 0.00 | 0.10 | 0.00 | 89 | 1012.6 |
| 20260507225007 | 13 | 48 | 1.6 | 4.8 | 0.00 | 0.13 | 0.00 | 89 | 1012.6 |
| 20260507224524 | 13 | 58 | 1.6 | 4.8 | 0.00 | 0.13 | 0.00 | 89 | 1012.6 |
| 20260507224008 | 13 | 61 | 3.2 | 4.8 | 0.00 | 0.13 | 0.00 | 89 | 1012.7 |
| 20260507223513 | 13 | 71 | 1.6 | 4.8 | 0.00 | 0.13 | 0.00 | 88 | 1012.8 |
| 20260507223024 | 13 | 68 | 1.6 | 4.8 | 0.00 | 0.13 | 0.00 | 88 | 1012.7 |
| 20260507222509 | 13 | 56 | 0.0 | 3.2 | 0.00 | 0.13 | 0.00 | 88 | 1012.8 |
| 20260507222014 | 13 | 50 | 0.0 | 3.2 | 0.00 | 0.13 | 0.00 | 88 | 1012.9 |
| 20260507221513 | 13 | 30 | 1.6 | 3.2 | 0.00 | 0.15 | 0.00 | 88 | 1012.8 |
| 20260507221006 | 14 | 40 | 0.0 | 1.6 | 0.00 | 0.15 | 0.00 | 88 | 1012.9 |
| 20260507220507 | 14 | 38 | 0.0 | 1.6 | 0.00 | 0.15 | 0.00 | 88 | 1012.9 |
| 20260507220016 | 14 | 38 | 0.0 | 1.6 | 0.00 | 0.18 | 0.00 | 89 | 1012.9 |
| 20260507215509 | 14 | 38 | 0.0 | 1.6 | 0.00 | 0.18 | 0.18 | 88 | 1012.9 |
| 20260507215013 | 14 | 38 | 0.0 | 1.6 | 0.00 | 0.18 | 0.18 | 88 | 1012.9 |
| 20260507214521 | 14 | 38 | 0.0 | 1.6 | 0.00 | 0.18 | 0.18 | 89 | 1012.8 |
| 20260507214011 | 13 | 39 | 0.0 | 0.0 | 0.00 | 0.20 | 0.18 | 88 | 1013.0 |
| 20260507213512 | 14 | 39 | 0.0 | 0.0 | 0.00 | 0.20 | 0.18 | 88 | 1013.1 |
| 20260507213024 | 14 | 39 | 0.0 | 0.0 | 0.00 | 0.20 | 0.18 | 87 | 1013.1 |
| 20260507212511 | 14 | 39 | 0.0 | 1.6 | 0.00 | 0.20 | 0.18 | 87 | 1013.1 |
| 20260507212012 | 14 | 39 | 0.0 | 1.6 | 0.00 | 0.23 | 0.18 | 87 | 1013.0 |
| 20260507211526 | 14 | 39 | 0.0 | 1.6 | 0.00 | 0.23 | 0.18 | 87 | 1013.0 |
| 20260507211014 | 15 | 20 | 0.0 | 1.6 | 0.00 | 0.23 | 0.18 | 87 | 1013.0 |
| 20260507210515 | 15 | 19 | 1.6 | 1.6 | 0.00 | 0.25 | 0.18 | 86 | 1012.9 |
| 20260507210015 | 15 | 335 | 0.0 | 0.0 | 0.00 | 0.25 | 0.18 | 86 | 1013.0 |
| 20260507205507 | 15 | 335 | 0.0 | 1.6 | 0.00 | 0.25 | 0.18 | 85 | 1013.1 |
| 20260507205010 | 15 | 335 | 0.0 | 1.6 | 0.00 | 0.25 | 0.18 | 85 | 1013.1 |
| 20260507204517 | 15 | 335 | 0.0 | 1.6 | 0.00 | 0.25 | 0.18 | 85 | 1013.1 |
| 20260507204007 | 15 | 335 | 0.0 | 1.6 | 0.00 | 0.25 | 0.18 | 84 | 1013.1 |
| 20260507203508 | 15 | 335 | 0.0 | 0.0 | 0.00 | 0.25 | 0.18 | 83 | 1013.1 |
| 20260507203026 | 15 | 335 | 0.0 | 1.6 | 0.00 | 0.25 | 0.18 | 83 | 1013.1 |
| 20260507202506 | 15 | 335 | 0.0 | 1.6 | 0.00 | 0.25 | 0.18 | 83 | 1013.1 |
| 20260507202011 | 16 | 335 | 0.0 | 1.6 | 0.00 | 0.25 | 0.18 | 82 | 1013.0 |
| 20260507201531 | 16 | 335 | 0.0 | 1.6 | 0.00 | 0.25 | 0.18 | 82 | 1013.0 |
| 20260507201010 | 16 | 335 | 0.0 | 1.6 | 0.00 | 0.25 | 0.18 | 81 | 1013.0 |
| 20260507200510 | 16 | 335 | 0.0 | 3.2 | 0.00 | 0.25 | 0.18 | 81 | 1012.9 |
| 20260507200027 | 16 | 335 | 0.0 | 4.8 | 0.00 | 0.25 | 0.18 | 81 | 1012.8 |
| 20260507195508 | 16 | 353 | 0.0 | 4.8 | 0.00 | 0.25 | 0.18 | 81 | 1012.8 |
| 20260507195010 | 16 | 334 | 0.0 | 4.8 | 0.00 | 0.25 | 0.18 | 81 | 1012.7 |
| 20260507194521 | 16 | 7 | 1.6 | 4.8 | 0.00 | 0.25 | 0.18 | 82 | 1012.5 |
| 20260507194007 | 16 | 308 | 0.0 | 3.2 | 0.00 | 0.25 | 0.18 | 82 | 1012.5 |
| 20260507193507 | 16 | 336 | 0.0 | 1.6 | 0.00 | 0.25 | 0.18 | 82 | 1012.6 |
| 20260507193025 | 16 | 336 | 0.0 | 1.6 | 0.00 | 0.25 | 0.18 | 82 | 1012.7 |
| 20260507192508 | 16 | 336 | 0.0 | 1.6 | 0.00 | 0.25 | 0.18 | 81 | 1012.7 |
| 20260507192010 | 16 | 336 | 0.0 | 1.6 | 0.00 | 0.25 | 0.18 | 81 | 1012.8 |
| 20260507191524 | 16 | 335 | 0.0 | 1.6 | 0.00 | 0.25 | 0.18 | 81 | 1012.7 |
| 20260507191006 | 16 | 335 | 0.0 | 1.6 | 0.00 | 0.25 | 0.18 | 81 | 1012.7 |
| 20260507190511 | 17 | 337 | 0.0 | 1.6 | 0.00 | 0.25 | 0.18 | 80 | 1012.7 |
| 20260507190029 | 17 | 337 | 0.0 | 1.6 | 0.00 | 0.25 | 0.18 | 80 | 1012.6 |
| 20260507185507 | 17 | 337 | 0.0 | 3.2 | 0.00 | 0.25 | 0.18 | 79 | 1012.6 |
| 20260507185008 | 17 | 283 | 0.0 | 3.2 | 0.00 | 0.25 | 0.18 | 79 | 1012.7 |
| 20260507184528 | 17 | 280 | 0.0 | 3.2 | 0.00 | 0.25 | 0.18 | 78 | 1012.7 |
| 20260507184010 | 17 | 298 | 1.6 | 3.2 | 0.00 | 0.25 | 0.18 | 78 | 1012.7 |
| 20260507183510 | 17 | 293 | 0.0 | 4.8 | 0.00 | 0.25 | 0.18 | 78 | 1012.7 |
| 20260507183020 | 17 | 309 | 1.6 | 4.8 | 0.00 | 0.25 | 0.18 | 78 | 1012.7 |
| 20260507182508 | 17 | 281 | 1.6 | 3.2 | 0.00 | 0.25 | 0.18 | 78 | 1012.7 |
| 20260507182008 | 18 | 285 | 1.6 | 3.2 | 0.00 | 0.25 | 0.18 | 78 | 1012.8 |
| 20260507181522 | 18 | 304 | 0.0 | 3.2 | 0.00 | 0.25 | 0.18 | 78 | 1012.8 |
| 20260507181011 | 18 | 279 | 0.0 | 3.2 | 0.00 | 0.25 | 0.18 | 77 | 1012.8 |
| 20260507180510 | 18 | 307 | 0.0 | 3.2 | 0.00 | 0.25 | 0.18 | 77 | 1012.8 |
| 20260507180024 | 18 | 283 | 0.0 | 4.8 | 0.00 | 0.25 | 0.18 | 77 | 1012.7 |
| 20260507175509 | 18 | 276 | 1.6 | 4.8 | 0.00 | 0.25 | 0.18 | 77 | 1012.7 |
| 20260507175011 | 18 | 297 | 1.6 | 8.0 | 0.00 | 0.25 | 0.18 | 77 | 1012.7 |
| 20260507174532 | 18 | 281 | 1.6 | 8.0 | 0.00 | 0.25 | 0.18 | 77 | 1012.7 |
| 20260507174012 | 18 | 300 | 3.2 | 6.4 | 0.00 | 0.25 | 0.18 | 77 | 1012.7 |
| 20260507173509 | 18 | 292 | 4.8 | 6.4 | 0.00 | 0.25 | 0.18 | 77 | 1012.7 |
| 20260507173029 | 18 | 273 | 3.2 | 12.9 | 0.00 | 0.25 | 0.18 | 77 | 1012.7 |
| 20260507172508 | 18 | 262 | 1.6 | 12.9 | 0.00 | 0.25 | 0.18 | 76 | 1012.8 |
| 20260507172016 | 18 | 264 | 4.8 | 11.3 | 0.00 | 0.25 | 0.18 | 75 | 1012.8 |
| 20260507171527 | 19 | 264 | 4.8 | 11.3 | 0.00 | 0.25 | 0.18 | 74 | 1012.9 |
| 20260507171008 | 19 | 274 | 3.2 | 11.3 | 0.00 | 0.25 | 0.18 | 72 | 1013.0 |
| 20260507170510 | 19 | 289 | 4.8 | 11.3 | 0.00 | 0.25 | 0.18 | 70 | 1013.0 |
| 20260507170022 | 19 | 276 | 4.8 | 11.3 | 0.00 | 0.25 | 0.18 | 71 | 1012.9 |
| 20260507165509 | 19 | 281 | 4.8 | 11.3 | 0.00 | 0.25 | 0.18 | 71 | 1013.0 |
| 20260507165013 | 20 | 243 | 6.4 | 11.3 | 0.00 | 0.25 | 0.18 | 70 | 1012.9 |
| 20260507164526 | 20 | 248 | 4.8 | 11.3 | 0.00 | 0.25 | 0.18 | 70 | 1013.0 |
| 20260507164012 | 20 | 243 | 6.4 | 11.3 | 0.00 | 0.25 | 0.18 | 69 | 1012.8 |
| 20260507163509 | 20 | 281 | 4.8 | 12.9 | 0.00 | 0.25 | 0.18 | 67 | 1012.7 |
| 20260507163031 | 20 | 257 | 6.4 | 12.9 | 0.00 | 0.25 | 0.18 | 68 | 1012.8 |
| 20260507162511 | 20 | 287 | 6.4 | 11.3 | 0.00 | 0.25 | 0.18 | 67 | 1012.8 |
| 20260507162011 | 21 | 271 | 6.4 | 11.3 | 0.00 | 0.25 | 0.18 | 66 | 1012.8 |
| 20260507161529 | 21 | 238 | 6.4 | 11.3 | 0.00 | 0.25 | 0.18 | 66 | 1012.8 |
| 20260507161007 | 21 | 254 | 6.4 | 12.9 | 0.00 | 0.25 | 0.18 | 66 | 1012.9 |
| 20260507160511 | 21 | 285 | 6.4 | 12.9 | 0.00 | 0.25 | 0.18 | 66 | 1012.8 |
| 20260507160028 | 21 | 243 | 4.8 | 12.9 | 0.00 | 0.25 | 0.18 | 69 | 1012.8 |
| 20260507155510 | 21 | 256 | 6.4 | 11.3 | 0.00 | 0.25 | 0.18 | 70 | 1012.8 |
| 20260507155009 | 21 | 255 | 4.8 | 11.3 | 0.00 | 0.25 | 0.18 | 70 | 1012.8 |
| 20260507154521 | 21 | 241 | 6.4 | 11.3 | 0.00 | 0.25 | 0.18 | 69 | 1012.8 |
| 20260507154009 | 21 | 236 | 6.4 | 11.3 | 0.00 | 0.25 | 0.18 | 70 | 1012.8 |
| 20260507153508 | 20 | 285 | 4.8 | 14.5 | 0.00 | 0.25 | 0.18 | 70 | 1012.9 |
| 20260507153025 | 20 | 274 | 6.4 | 14.5 | 0.00 | 0.25 | 0.18 | 70 | 1012.8 |
| 20260507152511 | 21 | 259 | 3.2 | 12.9 | 0.00 | 0.25 | 0.18 | 72 | 1012.9 |
| 20260507152010 | 21 | 254 | 4.8 | 11.3 | 0.00 | 0.25 | 0.18 | 69 | 1013.0 |
| 20260507151527 | 21 | 233 | 4.8 | 14.5 | 0.00 | 0.25 | 0.18 | 70 | 1013.0 |
| 20260507151010 | 21 | 246 | 6.4 | 14.5 | 0.00 | 0.25 | 0.18 | 70 | 1013.0 |
| 20260507150516 | 21 | 232 | 4.8 | 14.5 | 0.00 | 0.25 | 0.18 | 71 | 1013.1 |
| 20260507150026 | 20 | 286 | 6.4 | 14.5 | 0.00 | 0.25 | 0.18 | 71 | 1013.1 |
| 20260507145510 | 21 | 262 | 6.4 | 14.5 | 0.00 | 0.25 | 0.18 | 70 | 1013.2 |
| 20260507145009 | 21 | 284 | 8.0 | 14.5 | 0.00 | 0.25 | 0.18 | 69 | 1013.3 |
| 20260507144520 | 21 | 235 | 6.4 | 14.5 | 0.00 | 0.25 | 0.18 | 70 | 1013.3 |
| 20260507144011 | 21 | 259 | 6.4 | 14.5 | 0.00 | 0.25 | 0.18 | 70 | 1013.3 |
| 20260507143511 | 20 | 293 | 4.8 | 12.9 | 0.00 | 0.25 | 0.18 | 71 | 1013.3 |
| 20260507143038 | 20 | 237 | 6.4 | 12.9 | 0.00 | 0.25 | 0.18 | 70 | 1013.2 |
| 20260507142508 | 20 | 273 | 6.4 | 12.9 | 0.00 | 0.25 | 0.18 | 71 | 1013.3 |
| 20260507142009 | 20 | 273 | 6.4 | 12.9 | 0.00 | 0.25 | 0.18 | 71 | 1013.3 |
| 20260507141538 | 20 | 289 | 6.4 | 16.1 | 0.00 | 0.25 | 0.18 | 71 | 1013.3 |
| 20260507141007 | 20 | 227 | 9.7 | 16.1 | 0.00 | 0.25 | 0.18 | 71 | 1013.5 |
| 20260507140510 | 20 | 259 | 9.7 | 14.5 | 0.00 | 0.25 | 0.18 | 71 | 1013.5 |
| 20260507140028 | 20 | 293 | 6.4 | 14.5 | 0.00 | 0.25 | 0.18 | 72 | 1013.5 |
| 20260507135510 | 20 | 283 | 8.0 | 14.5 | 0.00 | 0.25 | 0.18 | 71 | 1013.6 |
| 20260507135011 | 20 | 247 | 9.7 | 14.5 | 0.00 | 0.25 | 0.18 | 70 | 1013.7 |
| 20260507134528 | 20 | 285 | 6.4 | 11.3 | 0.00 | 0.25 | 0.18 | 71 | 1013.7 |
| 20260507134007 | 20 | 245 | 6.4 | 11.3 | 0.00 | 0.25 | 0.18 | 72 | 1013.8 |
| 20260507133511 | 20 | 220 | 8.0 | 16.1 | 0.00 | 0.25 | 0.18 | 71 | 1013.8 |
| 20260507133020 | 20 | 288 | 8.0 | 16.1 | 0.00 | 0.25 | 0.18 | 71 | 1013.9 |
| 20260507132507 | 20 | 290 | 8.0 | 12.9 | 0.00 | 0.25 | 0.18 | 70 | 1014.0 |
| 20260507132009 | 20 | 238 | 4.8 | 12.9 | 0.00 | 0.25 | 0.18 | 71 | 1014.1 |
| 20260507131523 | 20 | 285 | 4.8 | 14.5 | 0.00 | 0.25 | 0.18 | 71 | 1014.2 |
| 20260507131009 | 20 | 264 | 6.4 | 14.5 | 0.00 | 0.25 | 0.18 | 72 | 1014.2 |
| 20260507130511 | 20 | 264 | 4.8 | 11.3 | 0.00 | 0.25 | 0.18 | 72 | 1014.2 |
| 20260507130038 | 20 | 274 | 6.4 | 12.9 | 0.00 | 0.25 | 0.18 | 72 | 1014.3 |
| 20260507125513 | 20 | 266 | 6.4 | 12.9 | 0.00 | 0.25 | 0.18 | 72 | 1014.4 |
| 20260507125008 | 20 | 288 | 4.8 | 12.9 | 0.00 | 0.25 | 0.18 | 71 | 1014.5 |
| 20260507124526 | 20 | 279 | 6.4 | 17.7 | 0.00 | 0.25 | 0.18 | 73 | 1014.6 |
| 20260507124011 | 20 | 255 | 6.4 | 17.7 | 0.00 | 0.25 | 0.18 | 71 | 1014.7 |
| 20260507123511 | 20 | 307 | 8.0 | 12.9 | 0.00 | 0.25 | 0.18 | 72 | 1014.7 |
| 20260507123026 | 20 | 218 | 8.0 | 16.1 | 0.00 | 0.25 | 0.18 | 71 | 1014.7 |
| 20260507122508 | 20 | 225 | 8.0 | 16.1 | 0.00 | 0.25 | 0.18 | 71 | 1014.7 |
| 20260507122013 | 20 | 268 | 8.0 | 14.5 | 0.00 | 0.25 | 0.18 | 70 | 1014.7 |
| 20260507121523 | 20 | 226 | 6.4 | 11.3 | 0.00 | 0.25 | 0.18 | 72 | 1014.6 |
| 20260507121009 | 20 | 210 | 6.4 | 11.3 | 0.00 | 0.25 | 0.18 | 71 | 1014.7 |
| 20260507120511 | 20 | 264 | 4.8 | 11.3 | 0.00 | 0.25 | 0.18 | 74 | 1014.7 |
| 20260507120006 | 20 | 205 | 3.2 | 12.9 | 0.00 | 0.25 | 0.18 | 75 | 1014.7 |
| 20260507115504 | 20 | 241 | 8.0 | 12.9 | 0.00 | 0.25 | 0.18 | 72 | 1014.7 |
| 20260507115003 | 20 | 244 | 4.8 | 12.9 | 0.00 | 0.25 | 0.18 | 73 | 1014.7 |
| 20260507114509 | 20 | 256 | 4.8 | 12.9 | 0.00 | 0.25 | 0.18 | 74 | 1014.7 |
| 20260507114004 | 19 | 238 | 8.0 | 12.9 | 0.00 | 0.25 | 0.18 | 73 | 1014.7 |
| 20260507113509 | 19 | 233 | 8.0 | 12.9 | 0.00 | 0.25 | 0.18 | 73 | 1014.8 |
| 20260507113014 | 20 | 259 | 8.0 | 11.3 | 0.00 | 0.25 | 0.18 | 71 | 1014.8 |
| 20260507112510 | 20 | 262 | 6.4 | 11.3 | 0.00 | 0.25 | 0.18 | 73 | 1014.7 |
| 20260507112009 | 20 | 234 | 4.8 | 11.3 | 0.00 | 0.25 | 0.18 | 74 | 1014.9 |
| 20260507111517 | 20 | 238 | 4.8 | 9.7 | 0.00 | 0.25 | 0.18 | 74 | 1014.9 |
| 20260507111008 | 19 | 220 | 4.8 | 11.3 | 0.00 | 0.25 | 0.18 | 74 | 1015.0 |
| 20260507110509 | 19 | 258 | 6.4 | 11.3 | 0.00 | 0.25 | 0.18 | 73 | 1015.1 |
| 20260507110023 | 19 | 271 | 6.4 | 11.3 | 0.00 | 0.25 | 0.18 | 74 | 1015.0 |
| 20260507105508 | 19 | 233 | 6.4 | 11.3 | 0.00 | 0.25 | 0.18 | 73 | 1014.9 |
| 20260507105012 | 19 | 284 | 3.2 | 11.3 | 0.00 | 0.25 | 0.18 | 73 | 1014.9 |
| 20260507104507 | 19 | 251 | 6.4 | 11.3 | 0.00 | 0.25 | 0.18 | 74 | 1014.9 |
| 20260507104007 | 19 | 207 | 3.2 | 9.7 | 0.00 | 0.25 | 0.18 | 75 | 1014.9 |
| 20260507103505 | 19 | 228 | 3.2 | 11.3 | 0.00 | 0.25 | 0.18 | 74 | 1015.0 |
| 20260507103011 | 19 | 239 | 3.2 | 11.3 | 0.00 | 0.25 | 0.18 | 74 | 1015.0 |
| 20260507102505 | 19 | 229 | 3.2 | 11.3 | 0.00 | 0.25 | 0.18 | 74 | 1015.0 |
| 20260507102007 | 19 | 228 | 6.4 | 11.3 | 0.00 | 0.25 | 0.18 | 73 | 1015.1 |
| 20260507101519 | 20 | 269 | 3.2 | 9.7 | 0.00 | 0.25 | 0.18 | 73 | 1015.0 |
| 20260507101009 | 19 | 238 | 3.2 | 9.7 | 0.00 | 0.25 | 0.18 | 73 | 1015.1 |
| 20260507100508 | 19 | 283 | 4.8 | 9.7 | 0.00 | 0.25 | 0.18 | 74 | 1015.1 |
| 20260507100022 | 19 | 249 | 3.2 | 6.4 | 0.00 | 0.25 | 0.18 | 71 | 1015.1 |
| 20260507095510 | 19 | 257 | 3.2 | 9.7 | 0.00 | 0.25 | 0.18 | 71 | 1015.0 |
| 20260507095009 | 20 | 220 | 1.6 | 9.7 | 0.00 | 0.25 | 0.18 | 73 | 1015.0 |
| 20260507094524 | 20 | 252 | 4.8 | 11.3 | 0.00 | 0.25 | 0.18 | 73 | 1015.0 |
| 20260507094013 | 20 | 239 | 3.2 | 11.3 | 0.00 | 0.25 | 0.18 | 73 | 1015.1 |
| 20260507093508 | 20 | 246 | 6.4 | 11.3 | 0.00 | 0.25 | 0.18 | 71 | 1015.3 |
| 20260507093008 | 20 | 259 | 3.2 | 11.3 | 0.00 | 0.25 | 0.18 | 73 | 1015.3 |
| 20260507092504 | 20 | 236 | 4.8 | 11.3 | 0.00 | 0.25 | 0.18 | 72 | 1015.2 |
| 20260507092006 | 20 | 270 | 4.8 | 8.0 | 0.00 | 0.25 | 0.18 | 72 | 1015.1 |
| 20260507091514 | 20 | 218 | 1.6 | 4.8 | 0.00 | 0.25 | 0.18 | 70 | 1015.1 |
| 20260507091009 | 20 | 230 | 0.0 | 3.2 | 0.00 | 0.25 | 0.18 | 72 | 1015.1 |
| 20260507090505 | 20 | 82 | 1.6 | 4.8 | 0.00 | 0.25 | 0.18 | 71 | 1015.1 |
| 20260507090020 | 20 | 168 | 1.6 | 6.4 | 0.00 | 0.25 | 0.18 | 74 | 1015.2 |
| 20260507085509 | 19 | 153 | 3.2 | 9.7 | 0.00 | 0.25 | 0.18 | 74 | 1015.2 |
| 20260507085008 | 19 | 141 | 1.6 | 9.7 | 0.00 | 0.25 | 0.18 | 76 | 1015.3 |
| 20260507084524 | 19 | 226 | 6.4 | 11.3 | 0.00 | 0.25 | 0.18 | 75 | 1015.3 |
| 20260507084013 | 19 | 174 | 1.6 | 11.3 | 0.00 | 0.25 | 0.18 | 74 | 1015.4 |
| 20260507083508 | 19 | 251 | 4.8 | 9.7 | 0.00 | 0.25 | 0.18 | 76 | 1015.3 |
| 20260507083024 | 19 | 242 | 4.8 | 9.7 | 0.00 | 0.25 | 0.18 | 74 | 1015.3 |
| 20260507082506 | 20 | 251 | 4.8 | 9.7 | 0.00 | 0.25 | 0.18 | 73 | 1015.3 |
| 20260507082011 | 20 | 139 | 1.6 | 6.4 | 0.00 | 0.25 | 0.18 | 77 | 1015.3 |
| 20260507081512 | 19 | 254 | 1.6 | 6.4 | 0.00 | 0.25 | 0.18 | 76 | 1015.2 |
| 20260507081007 | 19 | 218 | 1.6 | 6.4 | 0.00 | 0.25 | 0.18 | 75 | 1015.2 |
| 20260507080505 | 19 | 187 | 1.6 | 6.4 | 0.00 | 0.25 | 0.18 | 76 | 1015.3 |
| 20260507080017 | 19 | 130 | 1.6 | 6.4 | 0.00 | 0.25 | 0.18 | 79 | 1015.2 |
| 20260507075505 | 18 | 259 | 1.6 | 6.4 | 0.00 | 0.25 | 0.18 | 77 | 1015.3 |
| 20260507075007 | 18 | 231 | 1.6 | 9.7 | 0.00 | 0.25 | 0.18 | 79 | 1015.3 |
| 20260507074520 | 18 | 184 | 3.2 | 9.7 | 0.00 | 0.25 | 0.18 | 79 | 1015.2 |
| 20260507074012 | 18 | 237 | 1.6 | 6.4 | 0.00 | 0.25 | 0.18 | 81 | 1015.2 |
| 20260507073510 | 18 | 117 | 1.6 | 8.0 | 0.00 | 0.25 | 0.18 | 82 | 1015.3 |
| 20260507073024 | 17 | 71 | 1.6 | 8.0 | 0.00 | 0.25 | 0.18 | 83 | 1015.4 |
| 20260507072509 | 18 | 260 | 1.6 | 4.8 | 0.00 | 0.25 | 0.18 | 82 | 1015.4 |
| 20260507072011 | 18 | 248 | 1.6 | 4.8 | 0.00 | 0.25 | 0.18 | 84 | 1015.3 |
| 20260507071533 | 17 | 281 | 1.6 | 6.4 | 0.00 | 0.25 | 0.18 | 84 | 1015.4 |
| 20260507071011 | 17 | 120 | 1.6 | 6.4 | 0.00 | 0.25 | 0.18 | 85 | 1015.5 |
| 20260507070512 | 17 | 106 | 3.2 | 6.4 | 0.00 | 0.25 | 0.18 | 85 | 1015.4 |
| 20260507070014 | 17 | 92 | 1.6 | 6.4 | 0.00 | 0.25 | 0.18 | 86 | 1015.3 |
| 20260507065504 | 17 | 80 | 1.6 | 6.4 | 0.00 | 0.25 | 0.18 | 86 | 1015.3 |
| 20260507065009 | 17 | 283 | 1.6 | 6.4 | 0.00 | 0.25 | 0.18 | 87 | 1015.1 |
| 20260507064531 | 16 | 106 | 1.6 | 9.7 | 0.00 | 0.25 | 0.18 | 87 | 1015.1 |
| 20260507064011 | 16 | 138 | 1.6 | 9.7 | 0.00 | 0.25 | 0.18 | 88 | 1015.1 |
| 20260507063508 | 16 | 245 | 0.0 | 6.4 | 0.00 | 0.25 | 0.18 | 90 | 1015.0 |
| 20260507063024 | 16 | 191 | 1.6 | 6.4 | 0.00 | 0.25 | 0.18 | 89 | 1014.9 |
| 20260507062516 | 16 | 134 | 0.0 | 8.0 | 0.00 | 0.25 | 0.18 | 91 | 1014.9 |
| 20260507062010 | 16 | 136 | 0.0 | 8.0 | 0.00 | 0.25 | 0.18 | 91 | 1014.9 |
| 20260507061524 | 16 | 94 | 1.6 | 4.8 | 0.00 | 0.25 | 0.18 | 91 | 1014.9 |
| 20260507061010 | 15 | 88 | 1.6 | 3.2 | 0.00 | 0.25 | 0.18 | 92 | 1014.9 |